Volver al catálogo

INTELSAT 33E DEB

ActivoGEO
NORAD 61995·DEBRIS· XX

Lanzado Aug 24, 2016 desde Guiana Space Centre

Loading…

TLE

ActualizadoSource: Space-Track

Época: Sep 14, 2026, 18:00 UTC

1 61995U 16053M   26257.75027439  .00000100  00000-0  00000-0 0  9995
2 61995   1.7667  81.5401 0052536 287.6423  72.5276  1.01032845  7034

Sigue INTELSAT 33E DEB en tiempo real con AllMySat

Download on the App Store